Regional Weather Roundup
Issued by NWS Green Bay, WI

Home | Current Version | Previous Version | Graphics & Text | Print | Product List | Glossary Off
Versions: 1 2 3 4 5 6 7 8 9 10 11 12 13 14 15 16 17 18 19 20 21 22 23 24 25 26 27 28 29 30 31 32 33 34 35 36 37 38 39 40 41 42 43 44 45 46 47 48 49 50

000
ASUS43 KGRB 081411
RWRGRB

NORTH-CENTRAL AND NORTHEAST WISCONSIN REGIONAL WEATHER ROUNDUP
NATIONAL WEATHER SERVICE GREEN BAY WI
800 AM CST MON FEB 08 2016

WIZ005-009-010>012-018-019-081500-
NORTH CENTRAL WISCONSIN

CITY           SKY/WX    TMP DP  RH WIND       PRES   REMARKS
IRONWOOD       CLOUDY    19  18  93 NW12G18   29.69R WCI   7
MANITOWISH WTR CLOUDY    19  17  91 N8        29.65R WCI   9
ARBOR VITAE    CLOUDY    22  17  83 N13       29.64R WCI  10
EAGLE RIVER    LGT SNOW  20  15  83 N8        29.62R VSB 1   WCI  10
LAND O LAKES   CLOUDY    19  16  87 N12       29.64R WCI   7
RHINELANDER    CLOUDY    21  16  81 VRB6      29.62R
PHILLIPS       CLOUDY    19  15  86 N8        29.67R WCI   9
ANTIGO         CLOUDY    24  22  91 NW8       29.59R
TOMAHAWK       LGT SNOW  22  18  86 N8        29.64R
MERRILL        CLOUDY    25  19  80 N10G18    29.63R
$$

WIZ013-073-081500-
NORTHEAST WISCONSIN

CITY           SKY/WX    TMP DP  RH WIND       PRES   REMARKS
IRON MOUNTAIN  LGT SNOW  29  25  85 N13       29.58R VSB 3/4
MARINETTE      CLOUDY    32  27  80 NW3       29.58R
OCONTO         CLOUDY    32  32 100 W6        29.59R
$$

WIZ017-030-035>037-045-081500-
CENTRAL WISCONSIN

CITY           SKY/WX    TMP DP  RH WIND       PRES   REMARKS
MEDFORD        CLOUDY    19  16  88 NW13      29.64R WCI   5
WAUSAU         CLOUDY    25  19  78 NW8       29.60S
MOSINEE        CLOUDY    21  19  93 NW10      29.62S
MARSHFIELD     CLOUDY    19  12  74 NW17      29.64R WCI   4
WISC RAPIDS    CLOUDY    20  12  71 NW14      29.68R WCI   7
STEVENS POINT  CLOUDY    19  15  82 W6        29.64R
WAUPACA        CLOUDY    26  19  75 W8        29.64R
SHAWANO        CLOUDY    32  24  73 W6        29.61R
CLINTONVILLE   CLOUDY    30  21  69 NW8       29.61R
WAUTOMA        CLOUDY    22  16  78 NW13      29.66S WCI  10
$$

WIZ038-039-048-051-081500-
FOX VALLEY

CITY           SKY/WX    TMP DP  RH WIND       PRES   REMARKS
NWS GREEN BAY  FLURRIES  30  27  88 W10       29.59R
APPLETON       CLOUDY    27  21  80 W12       29.59R
OSHKOSH        CLOUDY    26  19  74 W14       29.61R
FOND DU LAC    CLOUDY    27  20  75 NW12      29.62R
$$

WIZ022-050-052-081500-
EAST CENTRAL WISCONSIN

CITY           SKY/WX    TMP DP  RH WIND       PRES   REMARKS
EPHRAIM        CLOUDY    32  29  88 CALM      29.56S
STURGEON BAY   CLOUDY    32  27  80 W3        29.60R
MANITOWOC      FLURRIES  32  28  85 NW8       29.60R
SHEBOYGAN      CLOUDY    29  23  78 NW12      29.59S
$$

LMZ563-521-522-541>543-081500-
LAKESHORE

STATION/POSITION TIME  TEMP    WIND        PRES    VSBY  WAVE
                       AIR SEA DIR/SP/G                  HT/PER
                 (UTC) (F)     (DEG/KT/KT) (MB)    (MI)  (FT/S)
SHEBOYGAN LKSHOR 1400   31     290/ 11/ 14 1002.9R
KEWAUNEE LKSHORE 1300   33     290/  2/  7 1000.9R
ALGOMA MARINA    1341          320/  5/  7   N/A
NORTHPORT PIER   1300   33      CALM  /  3 1001.7S
CHAMBERS ISLAND  1300   32     260/  2/  4 1002.0R
MENOMINEE LKSHOR 1300   33     300/  3     1000.6R
$$



USA.gov is the U.S. government's official web portal to all federal, state and local government web resources and services.